Regional Weather Roundup
Issued by NWS

Home | Current Version | Previous Version | Text Only | Print | Product List | Glossary On
Versions: 1 2 3 4 5 6 7 8 9 10 11 12 13 14 15 16 17 18 19 20 21 22 23 24 25 26 27 28 29 30 31 32 33 34 35 36 37 38 39 40 41 42 43 44 45 46 47 48 49 50
000
ASUS43 KMKX 240800
RWRWI

WISCONSIN REGIONAL WEATHER ROUNDUP
NATIONAL WEATHER SERVICE MILWAUKEE/SULLIVAN WI
300 AM CDT TUE OCT 24 2017

NOTE: "FAIR" INDICATES FEW OR NO CLOUDS BELOW 12,000 FEET WITH NO
SIGNIFICANT WEATHER AND/OR OBSTRUCTIONS TO VISIBILITY.

WIZ001-002-006>008-014>016-023>028-240900-
NORTHWEST WISCONSIN

CITY           SKY/WX    TMP DP  RH WIND       PRES   REMARKS
SUPERIOR ARPT  CLOUDY    44  35  71 NW22G28   29.77F
ASHLAND        CLOUDY    44  36  73 NW13G22   29.70F
HAYWARD        LGT RAIN  41  35  79 N10G28    29.71F
SIREN          CLOUDY    43  32  64 N13G23    29.78F
CUMBERLAND     CLOUDY    41  32  70 NW17G26   29.73S
RICE LAKE      CLOUDY    43  33  67 NW13G28   29.73F
CHETEK         CLOUDY    44  36  72 N7G26     29.71F
LADYSMITH      CLOUDY    44  37  76 NW14G30   29.68F
EAU CLAIRE     NOT AVBL
MENOMONIE      CLOUDY    45  33  63 NW15G24   29.72F
NEW RICHMOND   CLOUDY    43  32  64 NW17G28   29.78S
OSCEOLA        CLOUDY    44  33  64 NW16G25   29.82F
$$

WIZ003>005-009-010-017-018-240900-
NORTH CENTRAL WISCONSIN

CITY           SKY/WX    TMP DP  RH WIND       PRES   REMARKS
MANITOWISH WTR RAIN      41  41 100 NW16G22   29.59F
ARBOR VITAE    DRIZZLE   43  41  95 N18G24    29.57F
WOODRUFF       DRIZZLE   43  41  95 N18G24    29.57F
RHINELANDER    CLOUDY    42  42 100 NW12G28   29.55F
EAGLE RIVER    DRIZZLE   43  43 100 NW16G23   29.54F
LAND O LAKES   RAIN      44  43  97 NW12G17   29.56F
PHILLIPS       CLOUDY    40  38  94 NW13G22   29.62F WCI  33
TOMAHAWK       LGT RAIN  41  39  94 NW12G18   29.59S
MEDFORD        CLOUDY    41  39  91 NW14      29.60S
MERRILL        DRIZZLE   43  42  97 N15G21    29.57F
$$

WIZ029-030-035-036-043>047-240900-
CENTRAL WISCONSIN

CITY           SKY/WX    TMP DP  RH WIND       PRES   REMARKS
WAUSAU         LGT RAIN  43  41  93 NW15G25   29.54F
MOSINEE        LGT RAIN  43  41  93 NW18G25   29.57S
MARSHFIELD     LGT RAIN  43  39  86 NW14G25   29.58F
STEVENS POINT  LGT RAIN  43  43  99 NW14G24   29.56S
WAUPACA        DRIZZLE   50  48  92 NW15G22   29.51F
WAUTOMA        LGT RAIN N/A N/A N/A NW20      29.53S
WISC RAPIDS    LGT RAIN  45  42  89 N13G25    29.58S
CAMP DOUGLAS   LGT RAIN  45  43  93 NW20      29.60S
$$

WIZ011>013-019>022-031-037>040-048>050-240900-
NORTHEAST WISCONSIN

CITY           SKY/WX    TMP DP  RH WIND       PRES   REMARKS
ANTIGO         LGT RAIN  44  43  97 N17G24    29.52F
SHAWANO        DRIZZLE   52  46  80 NW9       29.49S
OCONTO         CLOUDY    49  42  74 N5        29.46S
STURGEON BAY   LGT RAIN  49  44  83 N16       29.44F
GREEN BAY      CLOUDY    50  46  86 NW9       29.47S
MANITOWOC      LGT RAIN  49  45  86 NW10      29.46F
APPLETON       DRIZZLE   48  46  93 NW10      29.48S
CLINTONVILLE   HVY RAIN  50  46  87 NW12      29.50S
OSHKOSH        LGT RAIN  50  48  93 NW10      29.48F
$$

WIZ032>034-041-042-053>061-240900-
SOUTHWEST WISCONSIN

CITY           SKY/WX    TMP DP  RH WIND       PRES   REMARKS
LA CROSSE      CLOUDY    48  38  68 N17G24    29.67S
SPARTA         CLOUDY    43  40  91 NW10G21   29.65F
VIROQUA        CLOUDY    43  42  97 NW13      29.64F
BOSCOBEL       CLOUDY    46  42  86 W6        29.65F
PRAIRIE DU CHI CLOUDY    47  35  63 NW14      29.67F
PLATTEVILLE    CLOUDY    45  44  97 NW10      29.64S
$$

WIZ056-057-062-063-064-067-068-240900-
SOUTH CENTRAL WISCONSIN

CITY           SKY/WX    TMP DP  RH WIND       PRES   REMARKS
REEDSBURG      DRIZZLE   45  45 100 NW13G22   29.58F
BARABOO/DELLS  RAIN      45  43  93 NW15      29.57S
LONE ROCK      LGT RAIN  46  44  93 NW17G26   29.61F
MINERAL POINT  RAIN      45  45 100 NW9G18    29.61F
MADISON        LGT RAIN  46  44  93 NW9       29.54F
MIDDLETON      CLOUDY    47  46  98 NW16G23   29.56S
WATERTOWN      DRIZZLE   47  47 100 NW12G17   29.50F
MONROE         RAIN      45  43  93 W17G24    29.57F
JANESVILLE     LGT RAIN  46  46 100 W14       29.54F
$$

WIZ051-052-058>065-066-070>072-240900-
SOUTHEAST WISCONSIN

CITY           SKY/WX    TMP DP  RH WIND       PRES   REMARKS
MILWAUKEE      LGT RAIN  51  49  92 W7        29.48F
WAUKESHA       RAIN      45  45 100 W8        29.51F
MILWAUKEE/TIMM DRIZZLE   48  45  87 W7        29.50F
RACINE         CLOUDY    49  47  93 W9        29.50F
BURLINGTON     LGT RAIN  47  47 100 W10       29.51F
KENOSHA        LGT RAIN  49  46  90 W9        29.50F
FOND DU LAC    LGT RAIN  50  46  86 NW13      29.49F
SHEBOYGAN      CLOUDY    50  47  89 NW12      29.46F
WEST BEND      RAIN      46  46 100 NW8       29.48F
JUNEAU         RAIN      47  46  97 NW8       29.51F
$$

LSZ147-162-240900-
LAKE SUPERIOR

STATION/POSITION TIME  TEMP    WIND        PRES    WAVE
                       AIR SEA DIR/SP/G            HT/PER
                 (UTC) (F)     (DEG/KT/KT) (MB)    (FT/S)
W MID LAKE BUOY  0650   51 51              1002.5F   5/ 5
DEVILS ISLAND    0700   46     340/ 32/ 37 1005.5F
PORT WING        0740          330/ 22/ 29 1007.5S
SAXON HARBOR     0730   48     330/ 24/ 32 1004.1F
$$

LMZ867-665-643>646-240900-
LAKE MICHIGAN

STATION/POSITION TIME  TEMP    WIND        PRES    WAVE
                       AIR SEA DIR/SP/G            HT/PER
                 (UTC) (F)     (DEG/KT/KT) (MB)    (FT/S)
S GREEN BAY BUOY 0730   53 58  330/ 17/ 21  997.6F
N MID LAKE BUOY  0650   49 56  340/ 29/ 35  994.5F   4/ 5
NORTHPORT PIER   0744   51     320/ 28/ 36  995.3F
KEWAUNEE LAKESHO 0730   49     300/  3/  6  996.8F
SHEBOYGAN LAKESH 0700   51     280/  8/ 12  998.0F
PORT WASHINGTON  0740   51     290/  6/  9  999.3F
MILWAUKEE LAKESH 0730   51     290/  8/ 11   N/A
S MID LAKE BUOY  0650   54 60  320/ 16/ 19  998.7F
KENOSHA   LAKESH 0700   50     280/ 10/ 14  999.7
$$

TC  - TEMPERATURE IN CELSIUS
VSB - VISIBILITY IN STATUTE MILES
WCI - WIND CHILL INDEX
HX  - HEAT INDEX




USA.gov is the U.S. government's official web portal to all federal, state and local government web resources and services.